Brno, Czech Republic

2:49 PM CEST on September 28, 2016 (GMT +0200)
Turany

Weather History for LKTB - May, 2013

Change the Weather History Date:

Monday, May 20, 2013

  Actual Average Record
Temperature  
Mean Temperature 60 °F -  
Max Temperature 67 °F - - ()
Min Temperature 52 °F - - ()
Degree Days  
Heating Degree Days 6    
Growing Degree Days 10 (Base 50)    
Moisture  
Dew Point 50 °F    
Average Humidity 71    
Maximum Humidity 100    
Minimum Humidity 41    
Precipitation  
Precipitation 0.00 in - - ()
Sea Level Pressure  
Sea Level Pressure 29.86 in    
Wind  
Wind Speed 8 mph ()    
Max Wind Speed 14 mph    
Max Gust Speed -    
Visibility 5.9 miles    
Events Rain , Thunderstorm    
T = Trace of Precipitation, MM = Missing Value Source: Averaged Metar Reports

Daily Weather History Graph

Daily Weather History Graph

Search for Another Location

Airport or City:

Trip Planner

Search our weather history database for the weather conditions in past years. The results will help you decide how hot, cold, wet, or windy it might be!

Date:

Astronomy

May. 20, 2013 Rise Set
Actual Time 5:04 AM CEST 8:36 PM CEST
Civil Twilight 4:24 AM CEST 9:15 PM CEST
Nautical Twilight 3:32 AM CEST 10:08 PM CEST
Astronomical Twilight 2:20 AM CEST 11:22 PM CEST
Moon 2:58 PM CEST (5/20) 2:18 AM CEST (5/20)
Length of Visible Light 16h 50m
Length of Day
15h 31m
Waxing Gibbous, 72% of the Moon is Illuminated
May 20
Waxing Gibbous
May 25
Full
May 31
Last Quarter
Jun 8
New
Jun 16
First Quarter

Hourly Weather History & Observations

Time (CEST) Temp. Dew Point Humidity Pressure Visibility Wind Dir Wind Speed Gust Speed Precip Events Conditions
12:00 AM 60.8 °F 57.2 °F 88% 29.77 in 6.2 mi SE 6.9 mph - N/A Rain , Thunderstorm Light Thunderstorms and Rain
12:04 AM 60.8 °F 57.2 °F 88% 29.77 in - SE 5.8 mph - N/A Rain , Thunderstorm Light Thunderstorms and Rain
12:15 AM 59.0 °F 57.2 °F 94% 29.77 in 1.6 mi SSE 8.1 mph - N/A Rain , Thunderstorm Thunderstorms and Rain
12:30 AM 59.0 °F 57.2 °F 94% 29.77 in 2.5 mi SSE 9.2 mph - N/A Rain , Thunderstorm Thunderstorms and Rain
12:51 AM 59.0 °F 57.2 °F 94% 29.77 in 6.2 mi South 8.1 mph - N/A Rain , Thunderstorm Light Thunderstorms and Rain
1:00 AM 59.0 °F 57.2 °F 94% 29.77 in 6.2 mi South 6.9 mph - N/A Rain , Thunderstorm Light Rain Showers
1:30 AM 59.0 °F 57.2 °F 94% 29.77 in 6.2 mi ESE 4.6 mph - N/A Rain Light Rain Showers
2:00 AM 59 °F 58 °F 95% 29.78 in 7 mi SE 8.9 mph - - Rain Light Rain
2:00 AM 59.0 °F 59.0 °F 100% 29.77 in 6.2 mi SE 8.1 mph - N/A Rain Light Rain
2:30 AM 59.0 °F 57.2 °F 94% 29.77 in 6.2 mi SSW 9.2 mph - N/A Rain Light Rain
3:00 AM 59.0 °F 57.2 °F 94% 29.77 in 6.2 mi SW 8.1 mph - N/A   Mostly Cloudy
3:30 AM 57.2 °F 55.4 °F 94% 29.80 in 5.0 mi WSW 6.9 mph - N/A   Mostly Cloudy
4:00 AM 57.2 °F 53.6 °F 88% 29.80 in 6.2 mi WSW 10.4 mph - N/A   Mostly Cloudy
4:30 AM 57.2 °F 51.8 °F 82% 29.80 in 6.2 mi West 12.7 mph - N/A   Scattered Clouds
5:00 AM 55.4 °F 48.2 °F 77% 29.80 in 6.2 mi West 13.8 mph - N/A   Scattered Clouds
5:30 AM 53.6 °F 48.2 °F 82% 29.83 in 6.2 mi West 11.5 mph - N/A   Scattered Clouds
6:00 AM 53.6 °F 48.2 °F 82% 29.83 in 6.2 mi West 9.2 mph - N/A   Scattered Clouds
6:30 AM 53.6 °F 48.2 °F 82% 29.86 in 6.2 mi WSW 6.9 mph - N/A   Scattered Clouds
7:00 AM 53.6 °F 48.2 °F 82% 29.86 in - WSW 6.9 mph - N/A   Clear
7:30 AM 55.4 °F 48.2 °F 77% 29.86 in - West 10.4 mph - N/A   Clear
8:00 AM 56 °F 45 °F 58% 29.89 in 25 mi West 13.4 mph - -   Partly Cloudy
8:00 AM 55.4 °F 46.4 °F 72% 29.89 in 6.2 mi West 9.2 mph - N/A   Partly Cloudy
8:30 AM 57.2 °F 48.2 °F 72% 29.89 in 6.2 mi WNW 10.4 mph - N/A   Partly Cloudy
9:00 AM 59.0 °F 46.4 °F 63% 29.89 in 6.2 mi WNW 10.4 mph - N/A   Partly Cloudy
9:30 AM 59.0 °F 46.4 °F 63% 29.89 in 6.2 mi WNW 10.4 mph - N/A   Scattered Clouds
10:00 AM 59.0 °F 46.4 °F 63% 29.89 in 6.2 mi WNW 8.1 mph - N/A   Scattered Clouds
10:30 AM 60.8 °F 44.6 °F 55% 29.89 in 6.2 mi WNW 5.8 mph - N/A   Scattered Clouds
11:00 AM 60.8 °F 44.6 °F 55% 29.92 in 6.2 mi Variable 4.6 mph - N/A   Scattered Clouds
11:30 AM 60.8 °F 46.4 °F 59% 29.92 in 6.2 mi SW 3.5 mph - N/A   Mostly Cloudy
12:00 PM 62.6 °F 46.4 °F 55% 29.92 in 6.2 mi SSW 5.8 mph - N/A   Mostly Cloudy
12:30 PM 64.4 °F 46.4 °F 52% 29.92 in 6.2 mi WSW 5.8 mph - N/A   Scattered Clouds
1:00 PM 64.4 °F 46.4 °F 52% 29.92 in 6.2 mi SSW 9.2 mph - N/A   Scattered Clouds
1:30 PM 64.4 °F 46.4 °F 52% 29.92 in 6.2 mi SSW 11.5 mph - N/A   Scattered Clouds
2:00 PM 65 °F 47 °F 41% 29.89 in 31 mi SSW 11.2 mph - -   Partly Cloudy
2:00 PM 64.4 °F 44.6 °F 49% 29.89 in - SSW 9.2 mph - N/A   Clear
2:30 PM 64.4 °F 46.4 °F 52% 29.89 in - SW 11.5 mph - N/A   Clear
3:00 PM 64.4 °F 48.2 °F 56% 29.89 in - SSW 10.4 mph - N/A   Clear
3:30 PM 66.2 °F 48.2 °F 52% 29.89 in - SSW 12.7 mph - N/A   Clear
4:00 PM 64.4 °F 50.0 °F 59% 29.89 in - South 12.7 mph - N/A   Clear
4:30 PM 64.4 °F 48.2 °F 56% 29.89 in - South 11.5 mph - N/A   Clear
5:00 PM 64.4 °F 50.0 °F 59% 29.89 in - South 10.4 mph - N/A   Clear
5:30 PM 64.4 °F 50.0 °F 59% 29.89 in - South 10.4 mph - N/A   Clear
6:00 PM 64.4 °F 48.2 °F 56% 29.89 in - South 11.5 mph - N/A   Clear
6:30 PM 64.4 °F 50.0 °F 59% 29.89 in - South 11.5 mph - N/A   Clear
7:00 PM 62.6 °F 50.0 °F 63% 29.89 in - South 8.1 mph - N/A   Clear
7:30 PM 62.6 °F 50.0 °F 63% 29.89 in - South 9.2 mph - N/A   Clear
8:00 PM 60 °F 49 °F 56% 29.88 in 37 mi South 4.5 mph - -   Scattered Clouds
8:00 PM 60.8 °F 48.2 °F 63% 29.89 in - South 5.8 mph - N/A   Clear
8:30 PM 57.2 °F 50.0 °F 77% 29.89 in - South 4.6 mph - N/A   Clear
9:00 PM 57.2 °F 48.2 °F 72% 29.89 in - SE 4.6 mph - N/A   Clear
9:30 PM 57.2 °F 48.2 °F 72% 29.89 in - SSE 2.3 mph - N/A   Clear
10:00 PM 57.2 °F 48.2 °F 72% 29.92 in - Variable 1.2 mph - N/A   Clear
10:37 PM 57.2 °F 46.4 °F 67% 29.92 in - ENE 3.5 mph - N/A   Clear
11:00 PM 55.4 °F 46.4 °F 72% 29.92 in - NNE 4.6 mph - N/A   Clear
11:30 PM 55.4 °F 46.4 °F 72% 29.92 in - NNE 5.8 mph - N/A   Clear